FW0283 Weather Reports


time (UTC)temp
F
wind
direction
speed
knots
gust
knots
rain 1hr
in
rain 24hr
in
rain mn
in
humidity
%
barometer
mb
20260504081556 53 174 0.0 0.9 0.00 0.00 0.00 79 1005.8
20260504044536 55 164 0.0 0.0 0.00 0.00 0.00 75 1007.6
20260504043037 56 164 0.0 0.0 0.00 0.00 0.00 73 1007.7
20260504041531 56 164 0.0 0.0 0.00 0.00 0.00 72 1007.8
20260504040031 56 164 0.0 0.0 0.00 0.00 0.00 71 1007.8
20260504034531 57 164 0.0 0.0 0.00 0.00 0.00 70 1007.9
20260504033030 58 164 0.0 0.0 0.00 0.00 0.00 69 1007.9
20260504031529 58 164 0.0 0.0 0.00 0.00 0.00 68 1008.0
20260504030029 58 164 0.0 0.0 0.00 0.00 0.00 67 1008.1
20260504024538 59 164 0.0 0.0 0.00 0.00 0.00 66 1008.1
20260504023028 60 164 0.0 0.0 0.00 0.00 0.00 64 1008.0
20260504021528 60 164 0.0 0.0 0.00 0.00 0.00 63 1008.0
20260504020028 61 164 0.0 0.9 0.00 0.00 0.00 61 1007.9
20260504014527 63 244 0.0 0.0 0.00 0.00 0.00 58 1007.8
20260504013035 64 244 0.0 0.9 0.00 0.00 0.00 56 1007.8
20260504011526 65 244 0.0 0.0 0.00 0.00 0.00 54 1007.6
20260504010025 66 248 0.0 6.1 0.00 0.00 0.00 52 1007.6
20260504004526 68 257 0.0 2.6 0.00 0.00 0.00 50 1007.6
20260504003038 69 274 0.0 6.1 0.00 0.00 0.00 48 1007.6
20260504001524 69 255 2.6 7.8 0.00 0.00 0.00 48 1007.7
20260504000024 70 262 0.0 12.2 0.00 0.00 0.00 46 1007.5
20260503234522 69 280 4.3 9.6 0.00 0.00 0.00 46 1007.6
20260503233024 69 218 2.6 9.6 0.00 0.00 0.00 47 1007.7
20260503231519 69 246 0.9 7.8 0.00 0.00 0.00 49 1007.7
20260503230024 68 261 0.0 7.8 0.00 0.00 0.00 48 1007.8
20260503224526 69 304 1.7 8.7 0.00 0.00 0.00 47 1007.9
20260503223015 69 272 2.6 7.8 0.00 0.00 0.00 46 1008.0
20260503221514 69 238 2.6 9.6 0.00 0.00 0.00 45 1008.0
20260503220019 69 275 1.7 11.3 0.00 0.00 0.00 44 1008.3
20260503214514 69 307 0.9 7.0 0.00 0.00 0.00 43 1008.3
20260503213011 69 265 2.6 9.6 0.00 0.00 0.00 43 1008.4
20260503211509 69 246 1.7 9.6 0.00 0.00 0.00 42 1008.4
20260503210009 68 238 0.9 11.3 0.00 0.00 0.00 42 1008.5
20260503204508 69 132 3.5 13.9 0.00 0.00 0.00 40 1008.8
20260503203007 67 296 3.5 11.3 0.00 0.00 0.00 42 1008.8
20260503201506 68 274 0.0 6.1 0.00 0.00 0.00 41 1009.2
20260503200006 68 271 3.5 10.4 0.00 0.00 0.00 39 1009.0
20260503194504 68 219 0.9 13.0 0.00 0.00 0.00 40 1009.3
20260503193002 69 313 0.9 8.7 0.00 0.00 0.00 38 1009.7
20260503191502 69 152 2.6 9.6 0.00 0.00 0.00 38 1009.9
20260503184616 68 64 3.5 13.0 0.00 0.00 0.00 37 1009.7
20260503183101 68 255 2.6 10.4 0.00 0.00 0.00 39 1010.1
20260503181557 67 117 2.6 11.3 0.00 0.00 0.00 37 1010.5
20260503180052 67 210 0.9 9.6 0.00 0.00 0.00 39 1010.7
20260503174546 67 241 0.9 6.1 0.00 0.00 0.00 42 1011.1
20260503173043 66 104 1.7 5.2 0.00 0.00 0.00 42 1011.7
20260503171602 64 129 1.7 6.1 0.00 0.00 0.00 45 1012.4